When you browse on this site, cookies collect data to enhance your experience and personalize the content and advertising you see.
Visit our Privacy Policy to learn more. By continuing to use the site, you agree to this use of cookies and data.
  • In Austria
  • List of Countries
  • For 7 days
  • Water Temperature
  • Weather Map
  • News
  • Weather Widgets
  • user-avatar
    Login

    Hourly Weather Mercaderes

    Today, 17 September, Tuesday

    Time Temperature Precipitation Wind Pressure Humidity
    00:00 +21°C° 0.2 mm 1 mps 665 mmHg 84%
    01:00 +21°C° 0.2 mm 1 mps 665 mmHg 84%
    02:00 +21°C° 0.1 mm 1 mps 665 mmHg 85%
    03:00 +18°C° 0.1 mm 0 mps 665 mmHg 86%
    04:00 +18°C° 0.1 mm 0 mps 664 mmHg 86%
    05:00 +19°C° 0 mm 0 mps 665 mmHg 84%
    06:00 +19°C° 0 mm 0 mps 666 mmHg 81%
    07:00 +20°C° 0 mm 0 mps 666 mmHg 79%
    08:00 +22°C° 0 mm 0 mps 667 mmHg 72%
    09:00 +26°C° 0 mm 1 mps 667 mmHg 65%
    10:00 +28°C° 0 mm 1 mps 668 mmHg 58%
    11:00 +29°C° 0.2 mm 2 mps 668 mmHg 56%
    12:00 +30°C° 0.2 mm 2 mps 667 mmHg 53%
    13:00 +31°C° 0.2 mm 3 mps 667 mmHg 50%
    14:00 +30°C° 0.5 mm 3 mps 666 mmHg 55%
    15:00 +29°C° 0.5 mm 2 mps 665 mmHg 59%
    16:00 +28°C° 0.5 mm 2 mps 665 mmHg 63%
    17:00 +26°C° 0.7 mm 2 mps 665 mmHg 70%
    18:00 +24°C° 0.7 mm 2 mps 665 mmHg 78%
    19:00 +23°C° 0.7 mm 1 mps 665 mmHg 86%
    20:00 +22°C° 0.4 mm 1 mps 665 mmHg 86%
    21:00 +22°C° 0.4 mm 1 mps 665 mmHg 86%
    22:00 +21°C° 0.4 mm 1 mps 666 mmHg 87%
    23:00 +21°C° 0.2 mm 1 mps 665 mmHg 87%

    Tomorrow, 18 September, Wednesday

    Time Temperature Precipitation Wind Pressure Humidity
    00:00 +21°C° 0.2 mm 1 mps 665 mmHg 87%
    01:00 +19°C° 0.2 mm 0 mps 665 mmHg 86%
    02:00 +19°C° 0.2 mm 0 mps 665 mmHg 86%
    03:00 +19°C° 0.2 mm 0 mps 664 mmHg 86%
    04:00 +18°C° 0.2 mm 0 mps 664 mmHg 85%
    05:00 +19°C° 0.1 mm 0 mps 665 mmHg 84%
    06:00 +19°C° 0.1 mm 0 mps 665 mmHg 83%
    07:00 +19°C° 0.1 mm 0 mps 666 mmHg 82%
    08:00 +23°C° 0 mm 1 mps 666 mmHg 77%
    09:00 +25°C° 0 mm 1 mps 666 mmHg 72%
    10:00 +27°C° 0 mm 1 mps 667 mmHg 67%
    11:00 +27°C° 0.3 mm 1 mps 666 mmHg 64%
    12:00 +28°C° 0.3 mm 2 mps 666 mmHg 61%
    13:00 +29°C° 0.3 mm 2 mps 665 mmHg 59%
    14:00 +28°C° 1 mm 2 mps 665 mmHg 63%
    15:00 +27°C° 1 mm 2 mps 664 mmHg 66%
    16:00 +26°C° 1 mm 2 mps 664 mmHg 70%
    17:00 +25°C° 0.9 mm 2 mps 664 mmHg 77%
    18:00 +24°C° 0.9 mm 1 mps 664 mmHg 83%
    19:00 +22°C° 0.9 mm 1 mps 664 mmHg 89%
    20:00 +22°C° 0.8 mm 1 mps 664 mmHg 90%
    21:00 +20°C° 0.8 mm 0 mps 665 mmHg 91%
    22:00 +20°C° 0.8 mm 0 mps 665 mmHg 92%
    23:00 +20°C° 0.4 mm 0 mps 665 mmHg 92%

    Day after tomorrow, 19 September, Thursday

    Time Temperature Precipitation Wind Pressure Humidity
    00:00 +20°C° 0.4 mm 0 mps 664 mmHg 92%
    01:00 +20°C° 0.4 mm 0 mps 664 mmHg 92%
    02:00 +19°C° 0.5 mm 0 mps 664 mmHg 93%
    03:00 +19°C° 0.5 mm 0 mps 664 mmHg 93%
    04:00 +19°C° 0.5 mm 0 mps 663 mmHg 94%
    05:00 +19°C° 0.3 mm 0 mps 664 mmHg 93%
    06:00 +19°C° 0.3 mm 0 mps 664 mmHg 93%
    07:00 +19°C° 0.3 mm 0 mps 665 mmHg 92%
    08:00 +21°C° 0.1 mm 0 mps 665 mmHg 86%
    09:00 +24°C° 0.1 mm 1 mps 665 mmHg 80%
    10:00 +25°C° 0.1 mm 1 mps 666 mmHg 75%
    11:00 +26°C° 0.4 mm 1 mps 665 mmHg 71%
    12:00 +27°C° 0.4 mm 1 mps 665 mmHg 68%
    13:00 +28°C° 0.4 mm 2 mps 665 mmHg 64%
    14:00 +27°C° 1.4 mm 2 mps 664 mmHg 69%
    15:00 +26°C° 1.4 mm 2 mps 664 mmHg 74%
    16:00 +25°C° 1.4 mm 1 mps 663 mmHg 79%
    17:00 +24°C° 1.2 mm 1 mps 663 mmHg 84%
    18:00 +23°C° 1.2 mm 1 mps 664 mmHg 88%
    19:00 +22°C° 1.2 mm 1 mps 664 mmHg 93%
    20:00 +20°C° 1.1 mm 0 mps 664 mmHg 93%
    21:00 +20°C° 1.1 mm 0 mps 664 mmHg 94%
    22:00 +19°C° 1.1 mm 0 mps 665 mmHg 94%
    23:00 +19°C° 0.9 mm 0 mps 665 mmHg 94%

    20 September, Friday

    Time Temperature Precipitation Wind Pressure Humidity
    00:00 +19°C° 0.9 mm 0 mps 664 mmHg 94%
    01:00 +19°C° 0.9 mm 0 mps 664 mmHg 94%
    02:00 +19°C° 0.2 mm 0 mps 664 mmHg 94%
    03:00 +19°C° 0.2 mm 0 mps 664 mmHg 94%
    04:00 +19°C° 0.2 mm 0 mps 664 mmHg 95%
    05:00 +19°C° 0.1 mm 0 mps 664 mmHg 93%
    06:00 +19°C° 0.1 mm 0 mps 665 mmHg 92%
    07:00 +19°C° 0.1 mm 0 mps 666 mmHg 90%
    08:00 +21°C° 0.2 mm 0 mps 666 mmHg 86%
    09:00 +24°C° 0.2 mm 1 mps 666 mmHg 82%
    10:00 +25°C° 0.2 mm 1 mps 667 mmHg 78%
    11:00 +25°C° 0.5 mm 1 mps 667 mmHg 78%
    12:00 +25°C° 0.5 mm 1 mps 666 mmHg 78%
    13:00 +25°C° 0.5 mm 1 mps 666 mmHg 78%
    14:00 +25°C° 1.1 mm 1 mps 665 mmHg 78%
    15:00 +25°C° 1.1 mm 1 mps 665 mmHg 78%
    16:00 +25°C° 1.1 mm 1 mps 665 mmHg 78%
    17:00 +24°C° 1.1 mm 1 mps 665 mmHg 82%
    18:00 +23°C° 1.1 mm 1 mps 665 mmHg 86%
    19:00 +20°C° 1.1 mm 0 mps 665 mmHg 90%
    20:00 +19°C° 0.1 mm 0 mps 665 mmHg 90%
    21:00 +19°C° 0.1 mm 0 mps 665 mmHg 89%
    22:00 +21°C° 0.1 mm 1 mps 665 mmHg 89%
    23:00 +19°C° 0 mm 0 mps 665 mmHg 89%

    21 September, Saturday

    Time Temperature Precipitation Wind Pressure Humidity
    00:00 +19°C° 0 mm 0 mps 665 mmHg 89%
    01:00 +18°C° 0 mm 0 mps 665 mmHg 89%
    02:00 +18°C° 0 mm 0 mps 665 mmHg 90%
    03:00 +18°C° 0 mm 0 mps 665 mmHg 90%
    04:00 +18°C° 0 mm 0 mps 665 mmHg 90%
    05:00 +19°C° 0 mm 0 mps 665 mmHg 89%
    06:00 +19°C° 0 mm 0 mps 666 mmHg 88%
    07:00 +19°C° 0 mm 0 mps 666 mmHg 87%
    08:00 +21°C° 0 mm 0 mps 667 mmHg 80%
    09:00 +25°C° 0 mm 1 mps 667 mmHg 74%
    10:00 +26°C° 0 mm 1 mps 668 mmHg 67%
    11:00 +27°C° 0.2 mm 1 mps 667 mmHg 64%
    12:00 +28°C° 0.2 mm 2 mps 667 mmHg 60%
    13:00 +29°C° 0.2 mm 2 mps 667 mmHg 56%
    14:00 +28°C° 0.5 mm 2 mps 666 mmHg 60%
    15:00 +28°C° 0.5 mm 2 mps 665 mmHg 63%
    16:00 +27°C° 0.5 mm 2 mps 665 mmHg 67%
    17:00 +25°C° 0.3 mm 2 mps 665 mmHg 73%
    18:00 +24°C° 0.3 mm 1 mps 665 mmHg 80%
    19:00 +22°C° 0.3 mm 1 mps 665 mmHg 86%
    20:00 +22°C° 0.1 mm 1 mps 665 mmHg 86%
    21:00 +21°C° 0.1 mm 1 mps 666 mmHg 87%
    22:00 +21°C° 0.1 mm 1 mps 666 mmHg 87%
    23:00 +19°C° 0 mm 0 mps 666 mmHg 87%

    22 September, Sunday

    Time Temperature Precipitation Wind Pressure Humidity
    00:00 +19°C° 0 mm 0 mps 666 mmHg 87%
    01:00 +19°C° 0 mm 0 mps 665 mmHg 88%
    02:00 +19°C° 0 mm 0 mps 665 mmHg 89%
    03:00 +18°C° 0 mm 0 mps 665 mmHg 90%
    04:00 +18°C° 0 mm 0 mps 664 mmHg 91%
    05:00 +18°C° 0 mm 0 mps 665 mmHg 89%
    06:00 +19°C° 0 mm 0 mps 666 mmHg 86%
    07:00 +19°C° 0 mm 0 mps 666 mmHg 84%
    08:00 +21°C° 0 mm 0 mps 667 mmHg 77%
    09:00 +25°C° 0 mm 1 mps 667 mmHg 69%
    10:00 +27°C° 0 mm 1 mps 668 mmHg 61%
    11:00 +28°C° 0.1 mm 1 mps 667 mmHg 57%
    12:00 +29°C° 0.1 mm 2 mps 667 mmHg 54%
    13:00 +30°C° 0.1 mm 2 mps 666 mmHg 50%
    14:00 +29°C° 0.3 mm 2 mps 666 mmHg 55%
    15:00 +28°C° 0.3 mm 2 mps 665 mmHg 59%
    16:00 +27°C° 0.3 mm 2 mps 665 mmHg 64%
    17:00 +26°C° 0.7 mm 2 mps 665 mmHg 70%
    18:00 +24°C° 0.7 mm 2 mps 665 mmHg 77%
    19:00 +22°C° 0.7 mm 1 mps 665 mmHg 84%
    20:00 +22°C° 0.1 mm 1 mps 665 mmHg 84%
    21:00 +21°C° 0.1 mm 1 mps 666 mmHg 85%
    22:00 +21°C° 0.1 mm 1 mps 666 mmHg 85%
    23:00 +19°C° 0 mm 0 mps 666 mmHg 86%
    Show more